Time,TemperatureF,DewpointF,PressureIn,WindDirection,WindDirectionDegrees,WindSpeedMPH,WindSpeedGustMPH,Humidity,HourlyPrecipIn,Conditions,Clouds,dailyrainin,SoftwareType,DateUTC
2013-04-11 00:02:00,39.0,39.0,-100.00,ENE,70,0.0,2.0,99,0.34,,,-99.99,,2013-04-11 05:02:00,
2013-04-11 00:12:00,39.0,39.0,-100.00,NNE,15,0.0,1.0,99,0.13,,,-99.99,,2013-04-11 05:12:00,
2013-04-11 00:22:00,39.0,39.0,-100.00,NW,315,0.0,1.0,99,0.78,,,-99.99,,2013-04-11 05:22:00,
2013-04-11 00:32:00,39.0,39.0,-100.00,NE,50,2.0,2.0,99,0.18,,,-99.99,,2013-04-11 05:32:00,
2013-04-11 00:42:00,39.0,39.0,-100.00,NE,50,2.0,2.0,99,0.18,,,-99.99,,2013-04-11 05:42:00,
2013-04-11 00:52:00,39.0,39.0,-100.00,East,85,3.0,10.0,99,0.00,,,-99.99,,2013-04-11 05:52:00,
2013-04-11 01:02:00,39.0,39.0,-100.00,East,85,3.0,10.0,99,0.00,,,-99.99,,2013-04-11 06:02:00,
2013-04-11 01:12:00,39.0,39.0,-100.00,ENE,75,2.0,6.0,99,4.56,,,-99.99,,2013-04-11 06:12:00,
2013-04-11 01:22:00,39.0,39.0,-100.00,East,80,2.0,4.0,99,1.96,,,-99.99,,2013-04-11 06:22:00,
2013-04-11 01:32:00,39.0,39.0,-100.00,SE,130,1.0,4.0,99,4.97,,,-99.99,,2013-04-11 06:32:00,
2013-04-11 01:42:00,39.0,39.0,-100.00,SSW,200,0.0,0.0,99,0.08,,,-99.99,,2013-04-11 06:42:00,
2013-04-11 01:52:00,40.0,40.0,-100.00,WSW,240,1.0,4.0,99,1.47,,,-99.99,,2013-04-11 06:52:00,
2013-04-11 02:02:00,40.0,40.0,-100.00,WSW,240,1.0,4.0,99,1.47,,,-99.99,,2013-04-11 07:02:00,
2013-04-11 02:12:00,40.0,40.0,-100.00,WSW,255,2.0,4.0,99,0.47,,,-99.99,,2013-04-11 07:12:00,
2013-04-11 02:22:00,40.0,40.0,-100.00,West,270,2.0,4.0,99,0.13,,,-99.99,,2013-04-11 07:22:00,
2013-04-11 02:32:00,39.0,39.0,-100.00,WNW,285,4.0,6.0,99,2.28,,,-99.99,,2013-04-11 07:32:00,
2013-04-11 02:42:00,39.0,39.0,-100.00,WNW,285,4.0,6.0,99,2.28,,,-99.99,,2013-04-11 07:42:00,
2013-04-11 02:52:00,39.0,39.0,-100.00,WNW,300,4.0,6.0,99,1.53,,,-99.99,,2013-04-11 07:52:00,
2013-04-11 03:02:00,39.0,39.0,-100.00,WNW,300,4.0,6.0,99,1.53,,,-99.99,,2013-04-11 08:02:00,
2013-04-11 03:12:00,39.0,39.0,-100.00,NW,315,2.0,5.0,99,0.01,,,-99.99,,2013-04-11 08:12:00,
2013-04-11 03:22:00,39.0,39.0,-100.00,WNW,285,4.0,5.0,99,1.03,,,-99.99,,2013-04-11 08:22:00,
2013-04-11 03:32:00,39.0,39.0,-100.00,WNW,300,2.0,5.0,99,0.01,,,-99.99,,2013-04-11 08:32:00,
2013-04-11 03:42:00,39.0,39.0,-100.00,WNW,300,2.0,5.0,99,0.01,,,-99.99,,2013-04-11 08:42:00,
2013-04-11 03:52:00,39.0,39.0,-100.00,WNW,290,4.0,6.0,99,0.00,,,-99.99,,2013-04-11 08:52:00,
2013-04-11 04:02:00,39.0,39.0,-100.00,WNW,290,4.0,6.0,99,0.00,,,-99.99,,2013-04-11 09:02:00,
2013-04-11 04:12:00,39.0,39.0,-100.00,NW,315,3.0,4.0,99,0.00,,,-99.99,,2013-04-11 09:12:00,
2013-04-11 04:22:00,39.0,39.0,-100.00,NW,320,3.0,4.0,99,0.00,,,-99.99,,2013-04-11 09:22:00,
2013-04-11 04:33:00,39.0,39.0,-100.00,North,355,4.0,6.0,99,0.00,,,-99.99,,2013-04-11 09:33:00,
2013-04-11 04:42:00,39.0,39.0,-100.00,North,355,4.0,6.0,99,0.00,,,-99.99,,2013-04-11 09:42:00,
2013-04-11 04:52:00,39.0,38.0,-100.00,NNW,345,4.0,6.0,99,0.00,,,-99.99,,2013-04-11 09:52:00,
2013-04-11 05:02:00,39.0,38.0,-100.00,North,350,4.0,6.0,99,0.00,,,-99.99,,2013-04-11 10:02:00,
2013-04-11 05:12:00,38.0,38.0,-100.00,NNW,330,4.0,6.0,99,0.00,,,-99.99,,2013-04-11 10:12:00,
2013-04-11 05:23:00,38.0,38.0,-100.00,NNW,345,5.0,8.0,99,0.00,,,-99.99,,2013-04-11 10:23:00,
2013-04-11 05:32:00,38.0,38.0,-100.00,NW,315,3.0,4.0,99,0.00,,,-99.99,,2013-04-11 10:32:00,
2013-04-11 05:42:00,38.0,38.0,-100.00,NW,315,3.0,4.0,99,0.00,,,-99.99,,2013-04-11 10:42:00,
2013-04-11 05:52:00,38.0,38.0,-100.00,NNW,340,2.0,4.0,99,0.00,,,-99.99,,2013-04-11 10:52:00,
2013-04-11 06:02:00,38.0,38.0,-100.00,NNW,340,2.0,4.0,99,0.00,,,-99.99,,2013-04-11 11:02:00,
2013-04-11 06:12:00,38.0,38.0,-100.00,North,10,0.0,2.0,99,0.00,,,-99.99,,2013-04-11 11:12:00,
2013-04-11 06:22:00,38.0,38.0,-100.00,NNE,25,0.0,1.0,99,0.00,,,-99.99,,2013-04-11 11:22:00,
2013-04-11 06:32:00,38.0,38.0,-100.00,NNE,25,0.0,0.0,99,0.00,,,-99.99,,2013-04-11 11:32:00,
2013-04-11 06:42:00,38.0,38.0,-100.00,NNE,25,0.0,0.0,99,0.00,,,-99.99,,2013-04-11 11:42:00,
2013-04-11 06:52:00,38.0,38.0,-100.00,WNW,285,2.0,3.0,99,0.00,,,-99.99,,2013-04-11 11:52:00,
2013-04-11 07:02:00,38.0,38.0,-100.00,WNW,285,2.0,3.0,99,0.00,,,-99.99,,2013-04-11 12:02:00,
2013-04-11 07:12:00,38.0,38.0,-100.00,West,270,3.0,4.0,99,0.00,,,-99.99,,2013-04-11 12:12:00,
2013-04-11 07:22:00,38.0,38.0,-100.00,WSW,250,2.0,4.0,99,0.00,,,-99.99,,2013-04-11 12:22:00,
2013-04-11 07:32:00,38.0,38.0,-100.00,West,260,5.0,6.0,99,0.00,,,-99.99,,2013-04-11 12:32:00,
2013-04-11 07:42:00,38.0,38.0,-100.00,West,260,5.0,6.0,99,0.00,,,-99.99,,2013-04-11 12:42:00,
2013-04-11 07:52:00,38.0,38.0,-100.00,WSW,255,6.0,7.0,99,0.00,,,-99.99,,2013-04-11 12:52:00,
2013-04-11 08:02:00,38.0,38.0,-100.00,WSW,255,6.0,7.0,99,0.00,,,-99.99,,2013-04-11 13:02:00,
2013-04-11 08:12:00,38.0,38.0,-100.00,WSW,255,6.0,8.0,99,0.00,,,-99.99,,2013-04-11 13:12:00,
2013-04-11 08:22:00,38.0,38.0,-100.00,West,260,7.0,9.0,99,0.00,,,-99.99,,2013-04-11 13:22:00,
2013-04-11 08:32:00,38.0,38.0,-100.00,SW,235,7.0,9.0,99,0.00,,,-99.99,,2013-04-11 13:32:00,
2013-04-11 08:43:00,38.0,38.0,-100.00,SW,235,7.0,9.0,99,0.00,,,-99.99,,2013-04-11 13:43:00,
2013-04-11 08:52:00,37.0,37.0,-100.00,West,260,7.0,10.0,99,0.00,,,-99.99,,2013-04-11 13:52:00,
2013-04-11 09:02:00,37.0,37.0,-100.00,West,260,7.0,10.0,99,0.00,,,-99.99,,2013-04-11 14:02:00,
2013-04-11 09:12:00,38.0,38.0,-100.00,WSW,255,7.0,10.0,99,0.00,,,-99.99,,2013-04-11 14:12:00,
2013-04-11 09:22:00,37.0,37.0,-100.00,South,170,7.0,12.0,99,0.00,,,-99.99,,2013-04-11 14:22:00,
2013-04-11 09:32:00,38.0,38.0,-100.00,SSE,155,7.0,14.0,99,0.00,,,-99.99,,2013-04-11 14:32:00,
2013-04-11 09:42:00,38.0,38.0,-100.00,SSE,155,7.0,14.0,99,0.00,,,-99.99,,2013-04-11 14:42:00,
2013-04-11 09:52:00,38.0,37.0,-100.00,WSW,245,11.0,15.0,97,0.00,,,-99.99,,2013-04-11 14:52:00,
2013-04-11 10:02:00,38.0,37.0,-100.00,WSW,245,11.0,15.0,97,0.00,,,-99.99,,2013-04-11 15:02:00,
2013-04-11 10:12:00,38.0,36.0,-100.00,WSW,245,12.0,17.0,95,0.00,,,-99.99,,2013-04-11 15:12:00,
2013-04-11 10:22:00,39.0,37.0,-100.00,SW,215,8.0,14.0,92,0.00,,,-99.99,,2013-04-11 15:22:00,
2013-04-11 10:32:00,39.0,36.0,-100.00,SW,225,7.0,13.0,89,0.00,,,-99.99,,2013-04-11 15:32:00,
2013-04-11 10:43:00,39.0,36.0,-100.00,SW,225,7.0,13.0,89,0.00,,,-99.99,,2013-04-11 15:43:00,
2013-04-11 10:52:00,39.0,35.0,-100.00,WSW,245,12.0,14.0,86,0.00,,,-99.99,,2013-04-11 15:52:00,
2013-04-11 11:02:00,39.0,35.0,-100.00,WSW,245,12.0,14.0,86,0.00,,,-99.99,,2013-04-11 16:02:00,
2013-04-11 11:12:00,39.0,35.0,-100.00,SSW,205,7.0,16.0,85,0.00,,,-99.99,,2013-04-11 16:12:00,
2013-04-11 11:22:00,39.0,35.0,-100.00,West,260,11.0,16.0,85,0.00,,,-99.99,,2013-04-11 16:22:00,
2013-04-11 11:32:00,39.0,35.0,-100.00,SSW,205,11.0,18.0,85,0.00,,,-99.99,,2013-04-11 16:32:00,
2013-04-11 11:41:00,39.0,35.0,-100.00,SSW,205,11.0,18.0,85,0.00,,,-99.99,,2013-04-11 16:41:00,
2013-04-11 12:02:00,39.0,35.0,-100.00,SW,215,10.0,17.0,85,0.00,,,-99.99,,2013-04-11 17:02:00,
2013-04-11 12:12:00,38.0,35.0,-100.00,SW,235,14.0,17.0,85,0.00,,,-99.99,,2013-04-11 17:12:00,
2013-04-11 12:23:00,38.0,34.0,-100.00,WSW,255,12.0,18.0,85,0.00,,,-99.99,,2013-04-11 17:23:00,
2013-04-11 12:32:00,38.0,35.0,-100.00,SW,230,12.0,18.0,88,1.13,,,-99.99,,2013-04-11 17:32:00,
2013-04-11 12:42:00,38.0,35.0,-100.00,SW,230,12.0,18.0,88,1.13,,,-99.99,,2013-04-11 17:42:00,
2013-04-11 12:52:00,38.0,35.0,-100.00,SE,145,10.0,19.0,90,0.79,,,-99.99,,2013-04-11 17:52:00,
2013-04-11 13:03:00,38.0,35.0,-100.00,SE,145,10.0,19.0,90,0.79,,,-99.99,,2013-04-11 18:03:00,
2013-04-11 13:13:00,38.0,35.0,-100.00,WSW,255,12.0,19.0,90,0.47,,,-99.99,,2013-04-11 18:13:00,
2013-04-11 13:22:00,37.0,35.0,-100.00,WSW,245,12.0,20.0,90,0.79,,,-99.99,,2013-04-11 18:22:00,
2013-04-11 13:33:00,36.0,35.0,-100.00,SW,215,10.0,17.0,93,2.96,,,-99.99,,2013-04-11 18:33:00,
2013-04-11 13:42:00,36.0,35.0,-100.00,SW,215,10.0,17.0,93,2.96,,,-99.99,,2013-04-11 18:42:00,
2013-04-11 13:52:00,36.0,34.0,-100.00,WSW,245,17.0,21.0,94,5.31,,,-99.99,,2013-04-11 18:52:00,
2013-04-11 14:03:00,36.0,34.0,-100.00,WSW,245,17.0,21.0,94,5.31,,,-99.99,,2013-04-11 19:03:00,
2013-04-11 14:13:00,36.0,35.0,-100.00,South,170,14.0,22.0,95,8.22,,,-99.99,,2013-04-11 19:13:00,
2013-04-11 14:22:00,36.0,35.0,-100.00,WSW,250,12.0,17.0,95,5.40,,,-99.99,,2013-04-11 19:22:00,
2013-04-11 14:32:00,35.0,34.0,-100.00,SW,230,11.0,19.0,94,0.00,,,-99.99,,2013-04-11 19:32:00,
2013-04-11 14:42:00,35.0,34.0,-100.00,SW,230,11.0,19.0,94,0.00,,,-99.99,,2013-04-11 19:42:00,
2013-04-11 14:52:00,36.0,34.0,-100.00,SW,215,11.0,14.0,94,1.16,,,-99.99,,2013-04-11 19:52:00,
2013-04-11 15:02:00,36.0,34.0,-100.00,SW,215,11.0,14.0,94,1.16,,,-99.99,,2013-04-11 20:02:00,
2013-04-11 15:13:00,36.0,34.0,-100.00,SW,220,12.0,19.0,94,1.63,,,-99.99,,2013-04-11 20:13:00,
2013-04-11 15:22:00,36.0,35.0,-100.00,SW,235,9.0,16.0,94,1.36,,,-99.99,,2013-04-11 20:22:00,
2013-04-11 15:33:00,37.0,35.0,-100.00,SW,235,8.0,11.0,90,0.00,,,-99.99,,2013-04-11 20:33:00,
2013-04-11 15:42:00,37.0,35.0,-100.00,SW,235,8.0,11.0,90,0.00,,,-99.99,,2013-04-11 20:42:00,
2013-04-11 15:52:00,36.0,33.0,-100.00,South,175,9.0,14.0,88,0.01,,,-99.99,,2013-04-11 20:52:00,
2013-04-11 16:02:00,36.0,33.0,-100.00,South,175,9.0,14.0,88,0.01,,,-99.99,,2013-04-11 21:02:00,
2013-04-11 16:12:00,36.0,33.0,-100.00,WSW,245,6.0,9.0,88,0.00,,,-99.99,,2013-04-11 21:12:00,
2013-04-11 16:22:00,37.0,34.0,-100.00,SW,230,7.0,9.0,88,0.00,,,-99.99,,2013-04-11 21:22:00,
2013-04-11 16:33:00,36.0,33.0,-100.00,SW,215,11.0,16.0,90,4.46,,,-99.99,,2013-04-11 21:33:00,
2013-04-11 16:42:00,36.0,33.0,-100.00,SW,215,11.0,16.0,90,4.46,,,-99.99,,2013-04-11 21:42:00,
2013-04-11 16:53:00,35.0,34.0,-100.00,East,90,9.0,16.0,93,2.58,,,-99.99,,2013-04-11 21:53:00,
2013-04-11 17:03:00,35.0,34.0,-100.00,East,90,9.0,16.0,93,2.58,,,-99.99,,2013-04-11 22:03:00,
2013-04-11 17:13:00,36.0,34.0,-100.00,SSW,195,8.0,16.0,94,0.00,,,-99.99,,2013-04-11 22:13:00,
2013-04-11 17:23:00,36.0,35.0,-100.00,SE,140,10.0,16.0,93,0.00,,,-99.99,,2013-04-11 22:23:00,
2013-04-11 17:33:00,36.0,33.0,-100.00,East,80,10.0,15.0,88,0.00,,,-99.99,,2013-04-11 22:33:00,
2013-04-11 17:44:00,36.0,33.0,-100.00,East,80,10.0,15.0,88,0.00,,,-99.99,,2013-04-11 22:44:00,
2013-04-11 17:52:00,37.0,33.0,-100.00,South,170,7.0,15.0,86,0.00,,,-99.99,,2013-04-11 22:52:00,
2013-04-11 18:03:00,37.0,33.0,-100.00,South,170,7.0,15.0,86,0.00,,,-99.99,,2013-04-11 23:03:00,
2013-04-11 18:12:00,37.0,33.0,-100.00,SSW,205,8.0,15.0,86,0.00,,,-99.99,,2013-04-11 23:12:00,
2013-04-11 18:22:00,37.0,33.0,-100.00,SSW,200,10.0,16.0,84,0.00,,,-99.99,,2013-04-11 23:22:00,
2013-04-11 18:32:00,36.0,32.0,-100.00,South,180,11.0,17.0,84,0.00,,,-99.99,,2013-04-11 23:32:00,
2013-04-11 18:42:00,36.0,32.0,-100.00,South,180,11.0,17.0,84,0.00,,,-99.99,,2013-04-11 23:42:00,
2013-04-11 18:52:00,37.0,33.0,-100.00,South,175,7.0,12.0,86,0.00,,,-99.99,,2013-04-11 23:52:00,
2013-04-11 19:02:00,37.0,33.0,-100.00,South,175,7.0,12.0,86,0.00,,,-99.99,,2013-04-12 00:02:00,
2013-04-11 19:12:00,36.0,33.0,-100.00,South,180,9.0,14.0,86,0.00,,,-99.99,,2013-04-12 00:12:00,
2013-04-11 19:22:00,36.0,33.0,-100.00,SSW,195,7.0,12.0,87,0.00,,,-99.99,,2013-04-12 00:22:00,
2013-04-11 19:32:00,36.0,33.0,-100.00,South,190,6.0,12.0,87,0.00,,,-99.99,,2013-04-12 00:32:00,
2013-04-11 19:42:00,36.0,33.0,-100.00,South,190,6.0,12.0,87,0.00,,,-99.99,,2013-04-12 00:42:00,
2013-04-11 19:52:00,37.0,33.0,-100.00,NE,50,5.0,10.0,87,0.00,,,-99.99,,2013-04-12 00:52:00,
2013-04-11 20:02:00,37.0,33.0,-100.00,NE,50,5.0,10.0,87,0.00,,,-99.99,,2013-04-12 01:02:00,
2013-04-11 20:12:00,36.0,33.0,-100.00,SSW,200,7.0,14.0,86,0.00,,,-99.99,,2013-04-12 01:12:00,
2013-04-11 20:22:00,36.0,33.0,-100.00,SSE,165,7.0,14.0,88,0.00,,,-99.99,,2013-04-12 01:22:00,
2013-04-11 20:32:00,36.0,33.0,-100.00,ENE,60,6.0,10.0,90,0.00,,,-99.99,,2013-04-12 01:32:00,
2013-04-11 20:42:00,36.0,33.0,-100.00,ENE,60,6.0,10.0,90,0.00,,,-99.99,,2013-04-12 01:42:00,
2013-04-11 20:52:00,36.0,34.0,-100.00,ENE,75,4.0,7.0,91,0.00,,,-99.99,,2013-04-12 01:52:00,
2013-04-11 21:03:00,36.0,34.0,-100.00,ENE,75,4.0,7.0,91,0.00,,,-99.99,,2013-04-12 02:03:00,
2013-04-11 21:12:00,36.0,34.0,-100.00,SSW,195,5.0,9.0,91,0.00,,,-99.99,,2013-04-12 02:12:00,
2013-04-11 21:22:00,36.0,34.0,-100.00,SE,125,6.0,10.0,91,0.00,,,-99.99,,2013-04-12 02:22:00,
2013-04-11 21:32:00,36.0,34.0,-100.00,ENE,65,8.0,12.0,91,0.00,,,-99.99,,2013-04-12 02:32:00,
2013-04-11 21:42:00,36.0,34.0,-100.00,ENE,65,8.0,12.0,91,0.00,,,-99.99,,2013-04-12 02:42:00,
2013-04-11 21:52:00,37.0,35.0,-100.00,SSW,195,7.0,12.0,91,0.00,,,-99.99,,2013-04-12 02:52:00,
2013-04-11 22:02:00,37.0,35.0,-100.00,SSW,195,7.0,12.0,91,0.00,,,-99.99,,2013-04-12 03:02:00,
2013-04-11 22:12:00,37.0,35.0,-100.00,East,90,7.0,14.0,93,0.00,,,-99.99,,2013-04-12 03:12:00,
2013-04-11 22:22:00,36.0,35.0,-100.00,SW,215,9.0,12.0,94,1.57,,,-99.99,,2013-04-12 03:22:00,
2013-04-11 22:33:00,36.0,36.0,-100.00,SW,220,11.0,16.0,96,0.00,,,-99.99,,2013-04-12 03:33:00,
2013-04-11 22:43:00,36.0,36.0,-100.00,SW,220,11.0,16.0,96,0.00,,,-99.99,,2013-04-12 03:43:00,
2013-04-11 22:52:00,36.0,36.0,-100.00,SW,225,12.0,18.0,97,0.00,,,-99.99,,2013-04-12 03:52:00,
2013-04-11 23:03:00,36.0,36.0,-100.00,SW,225,12.0,18.0,97,0.00,,,-99.99,,2013-04-12 04:03:00,
2013-04-11 23:13:00,36.0,35.0,-100.00,SSW,210,10.0,17.0,97,0.00,,,-99.99,,2013-04-12 04:13:00,
2013-04-11 23:22:00,36.0,35.0,-100.00,South,180,12.0,19.0,97,0.00,,,-99.99,,2013-04-12 04:22:00,
2013-04-11 23:33:00,36.0,35.0,-100.00,SSW,210,12.0,17.0,95,0.00,,,-99.99,,2013-04-12 04:33:00,
2013-04-11 23:43:00,36.0,35.0,-100.00,SSW,210,12.0,17.0,95,0.00,,,-99.99,,2013-04-12 04:43:00,
2013-04-11 23:52:00,36.0,35.0,-100.00,SSE,155,14.0,17.0,94,0.00,,,-99.99,,2013-04-12 04:52:00,